Regional Weather Roundup
Issued by NWS

Home | Current Version | Previous Version | Graphics & Text | Print | Product List | Glossary On
Versions: 1 2 3 4 5 6 7 8 9 10 11 12 13 14 15 16 17 18 19 20 21 22 23 24 25 26 27 28 29 30 31 32 33 34 35 36 37 38 39 40 41 42 43 44 45 46 47 48 49 50
000
ASUS43 KTOP 081308
RWRKS

WEATHER ROUNDUP FOR KANSAS
NATIONAL WEATHER SERVICE GOODLAND KS
700 AM CST MON FEB 08 2016

NOTE:  "FAIR" INDICATES FEW OR NO CLOUDS BELOW 12,000 FEET WITH NO
SIGNIFICANT WEATHER AND/OR OBSTRUCTIONS TO VISIBILITY.

KSZ001>006-013>018-027>032-041>047-081400-
NORTHWEST KANSAS

CITY           SKY/WX    TMP DP  RH WIND       PRES   REMARKS
GOODLAND       CLOUDY    21  10  62 NW18      30.32R WCI   6
HAYS           CLEAR     28   9  43 NW23G35   30.25R WCI  14
HILL CITY      CLEAR     28  14  55 NW23G31   30.29R WCI  14
RUSSELL        CLEAR     29  16  58 NW29G36   30.23R WCI  14
$$

KSZ061>065-074>080-084>089-081400-
SOUTHWEST KANSAS

CITY           SKY/WX    TMP DP  RH WIND       PRES   REMARKS
DODGE CITY     CLEAR     26  11  52 NW17      30.31S WCI  13
ELKHART          N/A     29  10  45 W16         N/A  WCI  17
GARDEN CITY    CLEAR     25  13  60 NW14      30.34R WCI  13
GREAT BEND     CLEAR     30  12  47 NW21G26   30.26S WCI  17
LIBERAL        CLEAR     28  10  47 NW14      30.37R WCI  17
PRATT          CLEAR     27  13  56 NW20      30.26S WCI  13
$$

KSZ066>073-081>083-090>101-081400-
SOUTHEAST KANSAS

CITY           SKY/WX    TMP DP  RH WIND       PRES   REMARKS
CHANUTE        CLOUDY    34  19  54 NW16      30.08F WCI  24
COFFEYVILLE    MOCLDY    36  18  48 NW15      30.13R WCI  27
HUTCHINSON     CLEAR     31  16  54 NW22G30   30.20S WCI  18
MEDICINE LODGE   N/A     31  15  52 NW16G25   30.26S WCI  20
NEWTON         CLEAR     30  14  51 NW20G28   30.17R WCI  18
PARSONS        MOCLDY    36  19  50 NW12G24   30.11S WCI  28
WICHITA INTL   PTCLDY    32  17  54 NW22      30.19S WCI  19
WICHITA JABRA  CLEAR     32  16  51 NW22G32   30.17R WCI  19
WICHITA MCCONL CLEAR     32  17  53 NW17      30.18R WCI  21
WINFIELD       CLEAR     34  17  50 NW23G33   30.20R WCI  22
$$

KSZ007>012-019>026-033>040-048>060-102>105-081400-
NORTHEAST KANSAS

CITY           SKY/WX    TMP DP  RH WIND       PRES   REMARKS
CONCORDIA      PTCLDY    31  17  56 NW18G25   30.16R WCI  19
EMPORIA        MOCLDY    34  18  52 NW24G35   30.08S WCI  21
LAWRENCE       FLURRIES  31  24  75 NW22G30   30.05R WCI  18
MANHATTAN      CLOUDY    35  17  47 NW14G30   30.12S WCI  26
MARYSVILLE     CLOUDY    32  25  74 NW15G29   30.09R WCI  22
OLATHE IND     FLURRIES  32  20  61 NW24G39   30.03R WCI  19
OLATHE EXE     CLOUDY    31  23  72 NW20G25   30.01R WCI  19
SALINA         CLEAR     31  17  56 NW22      30.18S WCI  18
TOPEKA BILLARD LGT SNOW  32  25  75 N16       30.07R WCI  21
TOPEKA FORBES  LGT SNOW  35  22  58 N25G37    30.05R WCI  23
$$



USA.gov is the U.S. government's official web portal to all federal, state and local government web resources and services.